�N����,����,�~����,�C��,���x,�C��,����,���ϕ���,�ő�u�ԕ���,�ő厞����,���˗�,�I�_���x,�n�����x,�ő啗���N��,DTYPE
"18/02/23","00:10",0.0,2.5,81.5,1013.8,301.3,2.5,4.5,326.5,0.00,-0.3,5.3,"00:09:44",1
"18/02/23","00:20",0.0,2.4,81.5,1013.5,302.3,2.6,4.2,318.4,0.00,-0.4,5.4,"00:11:12",1
"18/02/23","00:30",0.0,2.1,81.3,1013.3,289.7,1.6,3.2,313.2,0.00,-0.7,5.3,"00:23:12",1
"18/02/23","00:40",0.0,1.8,83.3,1013.5,270.9,1.1,1.9,302.0,0.00,-0.7,5.1,"00:33:28",1
"18/02/23","00:50",0.0,1.4,83.1,1013.0,290.0,1.8,2.1,308.5,0.00,-1.1,5.2,"00:48:40",1
"18/02/23","01:00",0.0,1.0,85.5,1012.8,306.4,1.8,2.7,318.4,0.00,-1.1,5.0,"00:59:36",1
"18/02/23","01:10",0.0,0.8,86.4,1012.6,304.9,1.8,2.4,319.9,0.00,-1.2,5.1,"01:02:00",1
"18/02/23","01:20",0.0,1.2,87.2,1012.6,316.4,2.8,4.4,323.7,0.00,-0.6,5.1,"01:19:28",1
"18/02/23","01:30",0.0,1.1,86.3,1012.8,309.9,2.8,3.7,331.5,0.00,-0.9,5.1,"01:23:04",1
"18/02/23","01:40",0.0,0.8,87.2,1013.0,308.9,2.0,2.8,315.9,0.00,-1.0,4.9,"01:33:36",1
"18/02/23","01:50",0.0,0.9,87.8,1012.6,327.4,2.6,4.1,334.0,0.00,-0.9,4.9,"01:40:02",1
"18/02/23","02:00",0.0,1.1,87.6,1012.8,321.7,3.2,4.9,324.7,0.00,-0.7,4.9,"01:54:58",1
"18/02/23","02:10",0.0,1.3,87.7,1012.6,313.6,3.1,5.8,320.9,0.00,-0.5,4.9,"02:05:36",1
"18/02/23","02:20",0.0,1.4,86.2,1012.8,318.4,3.4,6.0,319.8,0.00,-0.6,4.8,"02:11:52",1
"18/02/23","02:30",0.0,1.2,86.1,1013.0,321.6,3.5,5.5,323.6,0.00,-0.8,4.5,"02:25:02",1
"18/02/23","02:40",0.0,1.1,86.2,1012.8,323.9,3.4,4.5,322.4,0.00,-0.9,4.7,"02:37:20",1
"18/02/23","02:50",0.0,1.1,86.0,1012.6,318.2,3.1,4.8,330.3,0.00,-0.9,4.8,"02:45:20",1
"18/02/23","03:00",0.0,1.4,86.5,1012.8,316.2,3.1,4.7,323.9,0.00,-0.6,4.7,"02:58:56",1
"18/02/23","03:10",0.0,1.4,85.9,1012.6,320.2,2.8,4.0,327.7,0.00,-0.7,4.5,"03:01:20",1
"18/02/23","03:20",0.0,1.5,85.4,1012.8,320.1,3.0,5.0,330.1,0.00,-0.6,4.6,"03:14:58",1
"18/02/23","03:30",0.0,1.6,85.2,1012.6,319.9,3.0,4.4,320.3,0.00,-0.6,4.7,"03:25:54",1
"18/02/23","03:40",0.0,1.4,85.0,1012.6,320.7,2.6,3.6,321.2,0.00,-0.8,4.6,"03:32:32",1
"18/02/23","03:50",0.0,1.1,85.4,1012.6,300.3,2.2,3.1,320.1,0.00,-1.0,4.5,"03:41:20",1
"18/02/23","04:00",0.0,1.0,86.2,1012.8,308.9,2.0,3.2,334.1,0.00,-1.0,4.4,"03:57:36",1
"18/02/23","04:10",0.0,1.0,86.4,1013.0,314.6,2.5,3.4,330.1,0.00,-1.0,4.5,"04:06:56",1
"18/02/23","04:20",0.0,0.9,86.2,1012.8,316.3,2.6,3.7,323.6,0.00,-1.1,4.6,"04:18:08",1
"18/02/23","04:30",0.0,0.7,86.5,1012.8,298.8,1.7,3.4,324.9,0.00,-1.3,4.5,"04:20:32",1
"18/02/23","04:40",0.0,0.7,86.7,1012.6,320.5,2.3,3.2,337.0,0.00,-1.2,4.4,"04:36:08",1
"18/02/23","04:50",0.0,0.9,87.0,1013.0,317.0,2.8,3.9,328.0,0.00,-1.0,4.5,"04:41:12",1
"18/02/23","05:00",0.0,0.9,86.7,1013.0,304.5,2.2,3.7,326.0,0.00,-1.0,4.5,"04:52:32",1
"18/02/23","05:10",0.0,0.6,86.6,1013.0,299.8,1.6,2.6,324.8,0.00,-1.3,4.3,"05:06:24",1
"18/02/23","05:20",0.0,0.7,87.1,1013.0,317.3,1.7,2.7,345.9,0.00,-1.2,4.3,"05:15:36",1
"18/02/23","05:30",0.0,0.7,87.1,1012.8,317.3,2.0,2.8,330.9,0.00,-1.2,4.4,"05:29:36",1
"18/02/23","05:40",0.0,0.8,87.1,1013.3,323.6,2.8,4.9,328.2,0.00,-1.1,4.2,"05:35:52",1
"18/02/23","05:50",0.0,1.0,87.0,1013.3,316.8,3.2,4.7,324.4,0.00,-0.9,4.3,"05:43:04",1
"18/02/23","06:00",0.0,0.9,86.4,1013.5,322.1,3.0,4.7,329.9,0.00,-1.1,4.3,"05:50:58",1
"18/02/23","06:10",0.0,0.8,86.4,1013.5,310.2,2.5,4.4,301.4,0.00,-1.2,4.2,"06:09:30",1
"18/02/23","06:20",0.0,0.6,86.2,1013.5,302.5,2.0,3.9,321.7,0.00,-1.4,4.1,"06:11:04",1
"18/02/23","06:30",0.0,0.3,86.4,1013.5,310.0,2.2,4.0,323.6,0.00,-1.7,4.0,"06:20:24",1
"18/02/23","06:40",0.0,-0.2,87.7,1014.0,280.8,0.8,2.8,327.9,0.00,-1.9,4.1,"06:32:08",1
"18/02/23","06:50",0.0,-0.4,88.7,1013.5,33.8,0.3,1.0,135.9,0.00,-2.0,4.0,"06:41:28",1
"18/02/23","07:00",0.0,-0.7,88.8,1013.3,132.0,0.3,1.0,133.6,0.00,-2.3,4.0,"06:51:36",1
"18/02/23","07:10",0.0,-0.9,90.0,1013.5,325.2,0.8,1.9,332.4,0.00,-2.3,4.0,"07:07:52",1
"18/02/23","07:20",0.0,-1.1,91.0,1013.8,307.4,1.1,1.6,340.8,0.00,-2.3,4.0,"07:10:08",1
"18/02/23","07:30",0.0,-1.0,91.5,1013.8,318.1,0.2,0.9,339.7,0.00,-2.2,3.8,"07:25:12",1
"18/02/23","07:40",0.0,-0.1,90.9,1014.0,277.7,1.0,1.1,266.1,0.01,-1.4,4.0,"07:35:04",1
"18/02/23","07:50",0.0,0.7,89.2,1014.0,210.7,0.3,1.0,277.4,0.03,-0.8,3.9,"07:40:02",1
"18/02/23","08:00",0.0,1.8,85.5,1014.5,288.4,0.8,1.7,325.9,0.05,-0.3,3.9,"07:56:02",1
"18/02/23","08:10",0.0,2.2,84.8,1014.7,210.1,0.5,1.0,281.6,0.07,0.0,4.2,"08:02:08",1
"18/02/23","08:20",0.0,2.7,82.9,1015.2,262.2,0.6,1.2,283.0,0.09,0.1,4.1,"08:18:58",1
"18/02/23","08:30",0.0,3.3,81.0,1015.9,269.7,1.0,1.6,254.4,0.11,0.4,4.5,"08:25:06",1
"18/02/23","08:40",0.0,3.4,80.0,1016.4,267.1,0.8,1.6,263.7,0.14,0.3,4.3,"08:38:10",1
"18/02/23","08:50",0.0,3.7,78.6,1016.4,228.3,1.0,1.4,259.0,0.17,0.4,4.6,"08:46:16",1
"18/02/23","09:00",0.0,4.2,76.5,1016.6,258.4,0.8,1.6,137.0,0.19,0.5,4.7,"08:58:04",1
"18/02/23","09:10",0.0,4.6,74.4,1016.8,241.1,1.0,2.1,196.6,0.22,0.5,4.9,"09:04:16",1
"18/02/23","09:20",0.0,5.2,72.5,1016.4,287.0,0.8,2.0,104.6,0.25,0.7,5.2,"09:13:44",1
"18/02/23","09:30",0.0,5.2,72.8,1016.4,106.9,1.0,2.4,123.6,0.27,0.8,5.0,"09:28:32",1
"18/02/23","09:40",0.0,5.8,70.8,1016.6,236.7,1.0,1.9,164.1,0.30,1.0,5.6,"09:37:12",1
"18/02/23","09:50",0.0,6.3,70.3,1016.4,180.9,1.3,2.6,209.8,0.32,1.3,5.5,"09:42:40",1
"18/02/23","10:00",0.0,7.0,66.1,1016.4,201.3,1.6,3.2,205.0,0.34,1.2,5.8,"09:57:12",1
"18/02/23","10:10",0.0,7.6,57.2,1016.4,219.6,2.0,4.5,221.1,0.36,-0.3,6.0,"10:03:44",1
"18/02/23","10:20",0.0,8.1,49.6,1016.6,274.5,2.7,5.1,309.7,0.38,-1.8,6.2,"10:12:32",1
"18/02/23","10:30",0.0,8.2,48.7,1016.6,282.0,2.6,5.2,334.2,0.40,-1.9,6.5,"10:27:46",1
"18/02/23","10:40",0.0,8.4,46.8,1016.8,240.2,3.1,5.8,236.8,0.42,-2.3,6.6,"10:30:56",1
"18/02/23","10:50",0.0,7.9,46.3,1016.6,243.4,3.4,7.0,233.6,0.43,-2.9,6.7,"10:47:52",1
"18/02/23","11:00",0.0,8.8,43.5,1016.8,249.1,2.5,5.9,231.3,0.45,-2.9,7.0,"10:59:20",1
"18/02/23","11:10",0.0,9.1,42.9,1016.1,247.0,2.6,5.6,227.0,0.46,-2.8,7.0,"11:05:20",1
"18/02/23","11:20",0.0,9.3,41.5,1015.9,258.6,2.1,4.0,263.4,0.47,-3.1,7.4,"11:11:28",1
"18/02/23","11:30",0.0,9.3,41.2,1015.6,242.5,2.5,4.7,208.8,0.48,-3.2,7.9,"11:21:20",1
"18/02/23","11:40",0.0,10.0,41.4,1015.4,253.8,2.3,4.5,295.5,0.49,-2.5,7.8,"11:30:16",1
"18/02/23","11:50",0.0,9.7,41.6,1015.6,240.6,2.7,5.2,233.0,0.50,-2.7,8.2,"11:41:44",1
"18/02/23","12:00",0.0,10.2,34.4,1015.2,284.6,2.5,4.9,311.8,0.50,-4.8,8.2,"11:59:52",1
"18/02/23","12:10",0.0,10.0,28.3,1015.2,290.0,3.2,5.6,306.5,0.50,-7.5,8.6,"12:05:36",1
"18/02/23","12:20",0.0,11.1,31.9,1015.2,271.9,2.5,5.0,274.7,0.50,-5.0,8.8,"12:12:32",1
"18/02/23","12:30",0.0,10.9,31.7,1015.2,285.9,2.5,5.8,314.7,0.50,-5.2,8.8,"12:26:00",1
"18/02/23","12:40",0.0,10.7,28.9,1014.7,264.0,2.8,5.7,235.0,0.50,-6.6,9.0,"12:31:04",1
"18/02/23","12:50",0.0,11.1,29.5,1014.9,266.6,3.2,6.2,326.0,0.50,-6.0,9.3,"12:41:12",1
"18/02/23","13:00",0.0,11.5,29.2,1014.7,255.2,3.0,8.7,235.9,0.50,-5.8,9.4,"12:50:56",1
"18/02/23","13:10",0.0,11.0,29.8,1014.7,271.8,2.6,6.0,234.7,0.49,-5.9,9.6,"13:02:08",1
"18/02/23","13:20",0.0,11.0,29.5,1014.5,287.7,3.1,6.8,317.6,0.48,-6.1,9.7,"13:19:28",1
"18/02/23","13:30",0.0,11.6,30.7,1014.2,291.2,3.0,6.4,345.8,0.47,-5.0,9.7,"13:21:36",1
"18/02/23","13:40",0.0,11.5,29.8,1014.5,282.5,3.1,7.0,318.0,0.46,-5.5,9.9,"13:39:52",1
"18/02/23","13:50",0.0,11.8,28.2,1014.2,309.8,3.1,5.8,334.0,0.44,-6.0,10.1,"13:43:28",1
"18/02/23","14:00",0.0,11.9,27.6,1013.8,278.4,2.7,6.8,295.3,0.42,-6.2,10.0,"13:51:52",1
"18/02/23","14:10",0.0,11.9,27.3,1014.5,300.9,3.4,5.2,331.3,0.41,-6.3,10.2,"14:02:32",1
"18/02/23","14:20",0.0,11.8,28.0,1014.2,288.8,3.2,5.5,309.5,0.40,-6.1,10.0,"14:14:56",1
"18/02/23","14:30",0.0,11.7,29.0,1014.2,284.8,3.4,6.4,314.4,0.38,-5.7,10.4,"14:20:32",1
"18/02/23","14:40",0.0,11.8,27.7,1014.5,291.2,3.2,7.2,344.9,0.36,-6.2,10.4,"14:36:08",1
"18/02/23","14:50",0.0,12.1,29.2,1014.5,303.7,2.0,4.9,301.8,0.35,-5.3,10.5,"14:42:48",1
"18/02/23","15:00",0.0,11.6,28.8,1014.7,332.6,3.5,9.3,337.0,0.32,-5.9,10.4,"14:53:28",1
"18/02/23","15:10",0.0,11.9,30.0,1014.9,319.1,3.0,5.9,357.0,0.30,-5.1,10.3,"15:05:20",1
"18/02/23","15:20",0.0,11.4,31.1,1014.7,331.0,2.6,5.6,328.1,0.23,-5.0,10.5,"15:19:04",1
"18/02/23","15:30",0.0,11.1,30.9,1015.2,328.1,3.2,4.9,335.5,0.16,-5.4,10.3,"15:25:44",1
"18/02/23","15:40",0.0,11.2,32.1,1015.6,292.8,1.6,3.7,321.0,0.14,-4.8,10.3,"15:35:20",1
"18/02/23","15:50",0.0,10.9,30.7,1015.4,284.8,3.6,5.9,333.6,0.08,-5.6,10.0,"15:47:54",1
"18/02/23","16:00",0.0,10.7,31.6,1015.2,306.8,3.2,5.7,336.6,0.04,-5.4,9.9,"15:53:38",1
"18/02/23","16:10",0.0,10.8,30.7,1015.4,301.8,2.8,5.0,318.9,0.06,-5.7,9.7,"16:02:24",1
"18/02/23","16:20",0.0,11.0,31.7,1015.4,314.7,2.8,4.7,328.0,0.08,-5.1,9.6,"16:14:48",1
"18/02/23","16:30",0.0,10.9,33.5,1015.9,303.6,3.6,9.1,327.8,0.07,-4.5,9.7,"16:28:56",1
"18/02/23","16:40",0.0,9.9,37.6,1015.9,340.3,4.1,7.2,341.5,0.03,-3.8,9.6,"16:38:28",1
"18/02/23","16:50",0.0,9.8,41.7,1016.4,343.0,4.5,8.7,348.0,0.05,-2.6,9.6,"16:45:46",1
"18/02/23","17:00",0.0,9.6,44.5,1016.6,346.5,4.0,7.4,338.4,0.04,-1.9,9.3,"16:51:04",1
"18/02/23","17:10",0.0,9.2,47.8,1016.4,341.9,3.7,6.7,345.2,0.02,-1.2,8.9,"17:06:40",1
"18/02/23","17:20",0.0,9.0,49.6,1016.4,342.2,3.4,6.2,338.7,0.01,-0.9,9.0,"17:19:38",1
"18/02/23","17:30",0.0,8.6,50.8,1016.8,336.6,3.2,5.4,335.9,0.00,-1.0,9.0,"17:27:04",1
"18/02/23","17:40",0.0,8.5,49.4,1016.6,329.8,4.2,9.0,334.2,0.00,-1.4,8.9,"17:32:48",1
"18/02/23","17:50",0.0,8.3,49.6,1016.8,334.3,4.4,8.1,329.3,0.00,-1.6,8.7,"17:40:24",1
"18/02/23","18:00",0.0,8.1,49.4,1017.3,329.9,4.1,8.6,322.8,0.00,-1.8,8.7,"17:53:28",1
"18/02/23","18:10",0.0,8.1,48.0,1017.5,327.5,4.9,10.3,323.9,0.00,-2.2,8.6,"18:09:20",1
"18/02/23","18:20",0.0,7.7,49.9,1017.8,332.6,4.6,7.4,339.3,0.00,-2.0,8.4,"18:11:12",1
"18/02/23","18:30",0.0,7.7,50.2,1017.3,331.1,4.9,10.2,319.2,0.00,-2.0,8.1,"18:24:00",1
"18/02/23","18:40",0.0,7.5,51.5,1017.5,330.0,3.6,7.3,323.4,0.00,-1.8,8.1,"18:35:20",1
"18/02/23","18:50",0.0,7.4,51.2,1017.8,340.2,4.1,7.0,345.6,0.00,-2.0,7.7,"18:46:56",1
"18/02/23","19:00",0.0,7.1,52.3,1018.0,326.9,3.4,7.8,333.4,0.00,-2.0,7.8,"18:50:08",1
"18/02/23","19:10",0.0,7.0,52.3,1018.2,324.9,3.0,5.4,337.2,0.00,-2.1,7.7,"19:05:40",1
"18/02/23","19:20",0.0,6.8,53.4,1018.2,318.7,2.8,5.5,334.7,0.00,-2.0,7.7,"19:14:48",1
"18/02/23","19:30",0.0,6.2,54.8,1018.5,324.2,1.8,3.1,328.3,0.00,-2.2,7.5,"19:22:00",1
"18/02/23","19:40",0.0,5.4,57.5,1018.0,324.8,1.6,2.7,330.4,0.00,-2.3,7.5,"19:30:02",1
"18/02/23","19:50",0.0,4.3,62.7,1018.2,305.2,1.6,3.3,328.0,0.00,-2.1,7.2,"19:40:56",1
"18/02/23","20:00",0.0,3.9,67.0,1018.0,305.2,1.2,2.7,320.6,0.00,-1.6,7.1,"19:56:16",1
"18/02/23","20:10",0.0,3.5,69.3,1018.2,300.9,1.5,2.5,333.9,0.00,-1.5,7.3,"20:09:20",1
"18/02/23","20:20",0.0,3.2,71.1,1018.0,322.7,2.0,2.9,339.1,0.00,-1.5,7.0,"20:12:08",1
"18/02/23","20:30",0.0,2.9,72.6,1017.5,316.1,2.1,2.8,319.7,0.00,-1.5,6.7,"20:29:28",1
"18/02/23","20:40",0.0,2.7,74.3,1018.2,307.8,2.1,2.9,320.6,0.00,-1.4,6.7,"20:30:08",1
"18/02/23","20:50",0.0,2.5,74.0,1018.0,306.6,1.7,2.1,308.4,0.00,-1.6,6.7,"20:41:20",1
"18/02/23","21:00",0.0,2.1,75.5,1017.8,297.0,1.6,2.0,293.1,0.00,-1.7,6.7,"20:59:04",1
"18/02/23","21:10",0.0,1.9,77.3,1018.0,304.8,1.8,2.2,318.7,0.00,-1.6,6.5,"21:02:16",1
"18/02/23","21:20",0.0,1.7,79.2,1017.8,308.2,2.0,2.2,316.1,0.00,-1.5,6.4,"21:12:40",1
"18/02/23","21:30",0.0,1.9,81.2,1017.8,300.8,2.0,3.5,314.1,0.00,-0.9,6.2,"21:29:28",1
"18/02/23","21:40",0.0,1.8,79.7,1018.0,299.0,2.2,2.9,323.8,0.00,-1.3,6.1,"21:36:00",1
"18/02/23","21:50",0.0,1.6,80.2,1018.2,302.6,2.1,2.9,321.3,0.00,-1.4,6.1,"21:42:08",1
"18/02/23","22:00",0.0,1.6,82.0,1018.0,306.4,1.8,2.9,319.5,0.00,-1.1,5.8,"21:58:32",1
"18/02/23","22:10",0.0,1.6,81.3,1018.0,304.2,2.2,3.4,319.6,0.00,-1.2,6.0,"22:01:20",1
"18/02/23","22:20",0.0,1.6,81.5,1018.0,304.3,2.3,3.2,309.0,0.00,-1.2,5.7,"22:16:16",1
"18/02/23","22:30",0.0,1.8,81.2,1018.0,311.3,3.0,4.2,318.7,0.00,-1.0,5.7,"22:24:48",1
"18/02/23","22:40",0.0,1.5,82.0,1017.5,285.5,2.0,2.2,285.3,0.00,-1.2,5.7,"22:33:12",1
"18/02/23","22:50",0.0,1.4,82.3,1017.5,302.4,2.2,3.9,312.7,0.00,-1.2,5.6,"22:40:02",1
"18/02/23","23:00",0.0,1.7,82.2,1017.5,300.4,2.7,3.9,329.2,0.00,-1.0,5.6,"22:50:16",1
"18/02/23","23:10",0.0,2.3,80.5,1017.8,322.5,3.9,5.4,325.4,0.00,-0.7,5.3,"23:06:16",1
"18/02/23","23:20",0.0,2.4,79.2,1017.8,321.3,3.0,3.7,334.5,0.00,-0.8,5.5,"23:12:56",1
"18/02/23","23:30",0.0,2.2,78.1,1018.0,297.6,2.8,5.4,328.5,0.00,-1.2,5.6,"23:23:04",1
"18/02/23","23:40",0.0,1.6,79.7,1018.2,271.8,1.2,1.6,262.1,0.00,-1.5,5.5,"23:31:44",1
"18/02/23","23:50",0.0,2.0,80.9,1018.0,310.2,3.1,5.8,326.6,0.00,-0.9,5.3,"23:46:24",1
"18/02/23","24:00",0.0,2.1,79.6,1018.0,317.9,4.1,5.6,325.7,0.00,-1.0,5.4,"23:53:26",1
